Weather History for Manning, SC

Change the Weather History Date:

Saturday, May 25, 2013

  Actual Average (KCKI) Record (KCKI)
Temperature  
Mean Temperature 62 °F -  
Max Temperature 78 °F 85 °F 95 °F (2011)
Min Temperature 46 °F 59 °F 46 °F (2013)
Degree Days  
Heating Degree Days 3    
Growing Degree Days 12 (Base 50)    
Moisture  
Dew Point 48 °F    
Average Humidity 65    
Maximum Humidity 100    
Minimum Humidity 21    
Precipitation  
Precipitation 0.00 in - - ()
Sea Level Pressure  
Sea Level Pressure 30.23 in    
Wind  
Wind Speed 2 mph (North)    
Max Wind Speed 12 mph    
Max Gust Speed 17 mph    
Visibility 9 miles    
Events      
Averages and records for this station are not official NWS values.
T = Trace of Precipitation, MM = Missing Value Source: NWS Daily Summary

Daily Weather History Graph

Daily Weather History Graph

Search for Another Location

Airport:

Trip Planner

Search our weather history database for the weather conditions in past years. The results will help you decide how hot, cold, wet, or windy it might be!

Date:

Astronomy

May. 25, 2013 Rise Set
Actual Time 6:14 AM EDT 8:21 PM EDT
Civil Twilight 5:46 AM EDT 8:49 PM EDT
Nautical Twilight 5:11 AM EDT 9:24 PM EDT
Astronomical Twilight 4:34 AM EDT 10:01 PM EDT
Moon 9:08 PM EDT (5/25) 6:38 AM EDT (5/25)
Length of Visible Light 15h 03m
Length of Day
14h 07m
Full, 100% of the Moon is Illuminated
May 25
Full
May 31
Last Quarter
Jun 8
New
Jun 16
First Quarter
Jun 23
Full

Hourly Weather History & Observations

Time (EDT) Temp. Dew Point Humidity Pressure Visibility Wind Dir Wind Speed Gust Speed Precip Events Conditions
12:15 AM 53.6 °F 53.6 °F 100% 30.19 in 10.0 mi Calm Calm - N/A   Clear
12:35 AM 53.6 °F 53.6 °F 100% 30.19 in 10.0 mi Calm Calm - N/A   Clear
12:55 AM 53.6 °F 53.6 °F 100% 30.19 in 10.0 mi Calm Calm - N/A   Clear
1:15 AM 51.8 °F 51.8 °F 100% 30.19 in 10.0 mi North 3.5 mph - N/A   Clear
1:35 AM 51.8 °F 51.8 °F 100% 30.19 in 10.0 mi Calm Calm - N/A   Clear
1:55 AM 53.6 °F 53.6 °F 100% 30.19 in 10.0 mi Calm Calm - N/A   Clear
2:15 AM 53.6 °F 53.6 °F 100% 30.19 in 10.0 mi North 3.5 mph - N/A   Clear
2:35 AM 53.6 °F 50.0 °F 88% 30.20 in 5.0 mi NNE 4.6 mph - N/A   Clear
2:55 AM 53.6 °F 50.0 °F 88% 30.20 in 7.0 mi Calm Calm - N/A   Clear
3:15 AM 53.6 °F 50.0 °F 88% 30.20 in 7.0 mi North 3.5 mph - N/A   Clear
3:35 AM 53.6 °F 46.4 °F 77% 30.20 in 10.0 mi NNE 3.5 mph - N/A   Clear
3:55 AM 53.6 °F 46.4 °F 77% 30.21 in 10.0 mi NNE 4.6 mph - N/A   Clear
4:15 AM 55.4 °F 46.4 °F 72% 30.21 in 10.0 mi Calm Calm - N/A   Clear
4:35 AM 53.6 °F 48.2 °F 82% 30.22 in 7.0 mi Calm Calm - N/A   Clear
4:55 AM 53.6 °F 48.2 °F 82% 30.22 in 10.0 mi Calm Calm - N/A   Clear
5:15 AM 51.8 °F 50.0 °F 94% 30.24 in 7.0 mi Calm Calm - N/A   Clear
5:35 AM 50.0 °F 50.0 °F 100% 30.24 in 7.0 mi Calm Calm - N/A   Clear
5:55 AM 48.2 °F 48.2 °F 100% 30.25 in 7.0 mi Calm Calm - N/A   Clear
6:15 AM 46.4 °F 46.4 °F 100% 30.26 in 10.0 mi Calm Calm - N/A   Clear
6:35 AM 46.4 °F 46.4 °F 100% 30.26 in 10.0 mi Calm Calm - N/A   Clear
6:55 AM 46.4 °F 46.4 °F 100% 30.27 in 10.0 mi Calm Calm - N/A   Clear
7:15 AM 48.2 °F 48.2 °F 100% 30.28 in 10.0 mi Calm Calm - N/A   Clear
7:35 AM 51.8 °F 51.8 °F 100% 30.29 in 10.0 mi Calm Calm - N/A   Unknown
7:55 AM 55.4 °F 51.8 °F 88% 30.29 in 10.0 mi NNE 3.5 mph - N/A   Clear
8:15 AM 59.0 °F 51.8 °F 77% 30.30 in 10.0 mi NE 4.6 mph - N/A   Clear
8:35 AM 60.8 °F 50.0 °F 68% 30.31 in 10.0 mi NE 5.8 mph - N/A   Clear
8:55 AM 62.6 °F 51.8 °F 68% 30.31 in 10.0 mi NE 5.8 mph - N/A   Clear
9:15 AM 62.6 °F 51.8 °F 68% 30.32 in 10.0 mi NNE 9.2 mph - N/A   Clear
9:35 AM 64.4 °F 51.8 °F 64% 30.31 in 10.0 mi North 11.5 mph 16.1 mph N/A   Clear
9:55 AM 66.2 °F 51.8 °F 60% 30.32 in 10.0 mi NNE 10.4 mph 17.3 mph N/A   Clear
10:15 AM 66.2 °F 50.0 °F 56% 30.32 in 10.0 mi NNE 8.1 mph 16.1 mph N/A   Clear
10:35 AM 68.0 °F 48.2 °F 49% 30.32 in 10.0 mi North 11.5 mph - N/A   Clear
10:55 AM 68.0 °F 50.0 °F 52% 30.31 in 10.0 mi North 8.1 mph - N/A   Clear
11:15 AM 69.8 °F 46.4 °F 43% 30.31 in 10.0 mi NNE 8.1 mph - N/A   Clear
11:35 AM 69.8 °F 44.6 °F 40% 30.31 in 10.0 mi North 5.8 mph 9.2 mph N/A   Clear
11:55 AM 69.8 °F 37.4 °F 31% 30.30 in 10.0 mi NNE 6.9 mph - N/A   Clear
12:15 PM 71.6 °F 30.2 °F 22% 30.29 in 10.0 mi North 4.6 mph - N/A   Clear
12:35 PM 71.6 °F 41.0 °F 33% 30.28 in 10.0 mi North 6.9 mph - N/A   Clear
12:55 PM 71.6 °F 32.0 °F 23% 30.28 in 10.0 mi North 6.9 mph - N/A   Clear
1:15 PM 73.4 °F 33.8 °F 23% 30.27 in 10.0 mi North 6.9 mph - N/A   Clear
1:35 PM 73.4 °F 46.4 °F 38% 30.27 in 10.0 mi NW 8.1 mph - N/A   Clear
1:55 PM 75.2 °F 48.2 °F 38% 30.26 in 10.0 mi NW 8.1 mph - N/A   Clear
2:15 PM 73.4 °F 41.0 °F 31% 30.24 in 10.0 mi Calm Calm - N/A   Clear
2:35 PM 75.2 °F 42.8 °F 31% 30.23 in 10.0 mi North 3.5 mph - N/A   Clear
2:55 PM 77.0 °F 37.4 °F 24% 30.22 in 10.0 mi Calm Calm - N/A   Clear
3:15 PM 77.0 °F 48.2 °F 36% 30.21 in 10.0 mi NW 5.8 mph - N/A   Clear
3:35 PM 77.0 °F 50.0 °F 39% 30.21 in 10.0 mi West 3.5 mph - N/A   Clear
3:55 PM 77.0 °F 51.8 °F 41% 30.20 in 7.0 mi SSW 8.1 mph - N/A   Clear
4:15 PM 77.0 °F 50.0 °F 39% 30.20 in 7.0 mi SSW 6.9 mph - N/A   Clear
4:35 PM 77.0 °F 50.0 °F 39% 30.20 in 10.0 mi South 4.6 mph - N/A   Clear
4:55 PM 77.0 °F 51.8 °F 41% 30.19 in 7.0 mi South 9.2 mph - N/A   Clear
5:15 PM 77.0 °F 50.0 °F 39% 30.19 in 7.0 mi SSW 4.6 mph - N/A   Clear
5:35 PM 78.8 °F 46.4 °F 32% 30.19 in 7.0 mi West 3.5 mph - N/A   Clear
5:55 PM 78.8 °F 50.0 °F 36% 30.18 in 10.0 mi Calm Calm - N/A   Clear
6:15 PM 78.8 °F 35.6 °F 21% 30.18 in 7.0 mi West 4.6 mph - N/A   Clear
6:35 PM 78.8 °F 35.6 °F 21% 30.18 in 7.0 mi West 3.5 mph - N/A   Clear
6:55 PM 78.8 °F - N/A% 30.18 in 10.0 mi Calm Calm - N/A   Clear
7:15 PM 77.0 °F - N/A% 30.18 in 7.0 mi Calm Calm - N/A   Clear
7:35 PM 71.6 °F 30.2 °F 22% 30.19 in 10.0 mi Calm Calm - N/A   Clear
7:55 PM 69.8 °F 33.8 °F 27% 30.19 in 7.0 mi Calm Calm - N/A   Clear
8:15 PM 66.2 °F 37.4 °F 35% 30.19 in 10.0 mi Calm Calm - N/A   Clear
8:35 PM 64.4 °F 37.4 °F 37% 30.19 in 10.0 mi Calm Calm - N/A   Clear
8:55 PM 62.6 °F 44.6 °F 52% 30.18 in 10.0 mi Calm Calm - N/A   Clear
9:15 PM 60.8 °F 51.8 °F 72% 30.19 in 10.0 mi Calm Calm - N/A   Clear
9:35 PM 60.8 °F 53.6 °F 77% 30.19 in 10.0 mi Calm Calm - N/A   Clear
9:55 PM 60.8 °F 55.4 °F 82% 30.20 in 10.0 mi Calm Calm - N/A   Clear
10:15 PM 59.0 °F 53.6 °F 82% 30.20 in 10.0 mi Calm Calm - N/A   Clear
10:35 PM 57.2 °F 57.2 °F 100% 30.21 in 10.0 mi Calm Calm - N/A   Clear
10:55 PM 55.4 °F 55.4 °F 100% 30.21 in 10.0 mi Calm Calm - N/A   Clear
11:15 PM 55.4 °F 53.6 °F 94% 30.21 in 10.0 mi Calm Calm - N/A   Clear
11:35 PM 55.4 °F 51.8 °F 88% 30.20 in 10.0 mi Calm Calm - N/A   Clear
11:55 PM 55.4 °F 55.4 °F 100% 30.20 in 10.0 mi Calm Calm - N/A   Clear